Location: *
(49.3500°N, 12.6000°E)
Time: 15:21:23
(UTC+00:00)

USA 238 - Pass Details

Date: 18 October 2019
Orbit: 1027 x 1185 km, 63.4° (Epoch: 19 November)

Event Time Altitude Azimuth Distance (km) Brightness Sun altitude
Rises 17:32:59 0° 187° (S) 3,769 6.7 -13.6°
Reaches altitude 10° 17:35:47 10° 179° (S) 2,831 5.9 -14.0°
Maximum altitude 17:41:42 35° 116° (ESE) 1,634 4.2 -15.0°
Enters shadow 17:46:25 16° 60° (ENE) 2,494 5.1 -15.7°
